Regional Weather Roundup
Issued by NWS Goodland, KS

Home | Current Version | Previous Version | Text Only | Print | Product List | Glossary On
Versions: 1 2 3 4 5 6 7 8 9 10 11 12 13 14 15 16 17 18 19 20 21 22 23 24 25 26 27 28 29 30 31 32 33 34 35 36 37 38 39 40 41 42 43 44 45 46 47 48 49 50
000
ASUS43 KGLD 200308
RWRGLD

GOODLAND FORECAST AREA HOURLY WEATHER ROUNDUP
NATIONAL WEATHER SERVICE GOODLAND KS
900 PM MDT SUN MAY 19 2019

...OFFICIAL OBSERVATIONS...

CITY           SKY/WX    TMP DP  RH WIND       PRES   REMARKS
GOODLAND KS    CLOUDY    55  39  54 E14G22    29.94R
HILL CITY KS   CLOUDY    55  45  68 NE9       30.00R
IMPERIAL NEB   CLOUDY    46  32  58 NE20G29   30.00R
MCCOOK NEB     PTCLDY    48  35  60 NE16      30.02R
AKRON CO       CLOUDY    47  34  60 E22G32    29.92S
BURLINGTON CO  CLOUDY    56  41  57 E16G25    29.93R
LIMON CO       CLOUDY    51  40  65 E23G32    29.88R
$$

...UNOFFICIAL OBSERVATIONS...

CITY           SKY/WX    TMP DP  RH WIND       PRES   REMARKS
COLBY KS       CLOUDY    52  39  62 E12       29.98S
NORTON KS      CLEAR     52  39  62 NE12      30.05
KIT CARSON CO    N/A     54  44  69 MISG        N/A
YUMA CO        MOCLDY    46  28  49 E16       29.94
$$



USA.gov is the U.S. government's official web portal to all federal, state and local government web resources and services.